Flag for Congo Weather past 2 weeks in Pointe-Noire, Congo

84 °F

Scattered clouds.

Feels Like: 91 °F
Forecast: 77 / 84 °F
Wind: 7 mph from Southwest

Location: Pointe Airport-Noire

Current Time: Nov 29, 2015 at 4:57:37 PM

Latest Report: Nov 29, 2015 at 4:00 PM

Visibility: N/A

Pressure: 29.86 "Hg

Humidity: 70%

Dew point: 73 °F

Location of Pointe-NoireLocation

Historic Weather in Pointe-Noire — Graph


Pointe-Noire temperature yesterday

Maximum temperature yesterday: 86 °F (at 11:00 AM)
Minimum temperature yesterday: 79 °F (at 3:00 AM)
Average temperature yesterday: 82 °F

Past Weeks' High & Low Weather Summary

High88 °F (Nov 29, 2:00 PM)100% (Nov 23, 7:00 AM)29.98 "Hg (Nov 23, 7:00 AM)
Low75 °F (Nov 23, 6:00 AM)62% (Nov 16, 1:00 PM)29.74 "Hg (Nov 21, 4:00 PM)
Average81 °F82%29.86 "Hg
* Reported Nov 14 3:00 PM — Nov 29 3:00 PM, Pointe-Noire, Weather by CustomWeather, © 2015

Note: Actual official high and low records may vary slightly from our data, if they occured in-between our weather recording intervals... More about our weather records


Pointe-Noire weather history for previous 24 hours

Time TempWeatherWind HumidityBarometerVisibility
3:00 PM
Sun, Nov 29
86 °FScattered clouds.9 mph66%29.86 "HgN/A
2:00 PM88 °FScattered clouds.12 mph62%29.89 "HgN/A
1:00 PM86 °FBroken clouds.9 mph66%29.92 "HgN/A
12:00 PM82 °FPartly sunny.6 mph70%29.95 "HgN/A
11:00 AM82 °FPartly sunny.9 mph70%29.98 "HgN/A
10:00 AM81 °FPartly sunny.8 mph74%29.98 "HgN/A
9:00 AM81 °FBroken clouds.5 mph79%29.98 "HgN/A
8:00 AM79 °FPartly sunny.7 mph84%29.98 "HgN/A
7:00 AM77 °FLight rain. More clouds than sun.5 mph94%29.95 "Hg4 mi
6:00 AM77 °FMore clouds than sun.6 mph94%29.92 "Hg4 mi
5:00 AM77 °FMostly cloudy.6 mph94%29.89 "Hg4 mi
4:00 AM79 °FMostly cloudy.3 mph89%29.89 "Hg4 mi
3:00 AM79 °FLight rain. Mostly cloudy.3 mph94%29.89 "Hg4 mi
2:00 AM79 °FLight rain. Mostly cloudy.2 mph89%29.92 "Hg4 mi
1:00 AM81 °FMostly cloudy.2 mph84%29.95 "Hg5 mi
12:00 AM81 °FMostly cloudy.3 mph84%29.95 "Hg5 mi
11:00 PM
Sat, Nov 28
81 °FMostly cloudy.5 mph84%29.95 "Hg5 mi
10:00 PM81 °FPassing clouds.6 mph84%29.95 "Hg5 mi
9:00 PM81 °FLight rain. Passing clouds.6 mph79%29.89 "Hg5 mi
8:00 PM81 °FPassing clouds.7 mph79%29.89 "Hg5 mi
7:00 PM81 °FPassing clouds.8 mph79%29.86 "HgN/A
6:00 PM81 °FBroken clouds.10 mph79%29.86 "HgN/A
5:00 PM82 °FScattered clouds.12 mph74%29.83 "HgN/A
4:00 PM84 °FScattered clouds.12 mph70%29.83 "HgN/A
Weather by CustomWeather, © 2015

See weather overviewHow to use our weather pages